Epoch 2022 Aug. 9.0 TT = JDT 2459800.5
T 2022 Sept. 28.24814 TT Rudenko
q 1.5915057 (2000.0) P Q
z +0.0018575 Peri. 59.85342 -0.16160235 -0.67249131
+/-0.0000005 Node 300.02471 -0.90481336 +0.39312815
e 0.9970438 Incl. 123.46879 +0.39395109 +0.62706116
From 92 observations 2022 May 31-July 17, mean residual 0".7.
Finding Charts
Magnitudes Graph
m1 = 10.5 + 5 log d + 20.0 log r
The orbital elements are published on M.P.E.C. 2022-O08.
The charts are made with StellaNavigator Ver.10 (AstroArts).
The magnitudes graphs are made with Comet for Windows.
Copyright(C) Seiichi Yoshida (comet@aerith.net). All rights reserved.